Regional Weather Roundup
Issued by NWS

Home | Current Version | Previous Version | Graphics & Text | Print | Product List | Glossary On
Versions: 1 2 3 4 5 6 7 8 9 10 11 12 13 14 15 16 17 18 19 20 21 22 23 24 25 26 27 28 29 30 31 32 33 34 35 36 37 38 39 40 41 42 43 44 45 46 47 48 49 50
000
ASUS45 KABQ 131601
RWRNM
NEW MEXICO REGIONAL WEATHER ROUNDUP
NATIONAL WEATHER SERVICE ALBUQUERQUE NM
900 AM MST SAT FEB 13 2016

NOTE: "FAIR" MEANS FEW OR NO CLOUDS BELOW 12,000 FEET AGL WITH NO
       SIGNIFICANT WEATHER OR OBSTRUCTIONS TO VISION.

      THIS PRODUCT IS RELEASED AS TWO VERSIONS.  ONE VERSION NEAR
      THE TOP OF THE HOUR CONTAINING PRELIMINARY DATA FROM ALBUQUERQUE
      AND OTHER STATIONS.  A FINAL VERSION WITH ADDITIONAL DATA IS
      ISSUED ABOUT 10 MINUTES AFTER THE HOUR.

NMZ501-503-504-510>518-131700-
NORTHWEST PLATEAU/NORTHCENTRAL MOUNTAINS

CITY           SKY/WX    TMP DP  RH WIND       PRES   REMARKS
FARMINGTON     FAIR      35  26  69 E13       30.29F WCI  26
SANTA FE       FAIR      43  25  49 NE8       30.31S
TAOS           FAIR      37  28  70 N3        30.34F

$$
NMZ402-403-502-505>509-131700-
WESTCENTRAL MOUNTAINS/SOUTHWEST MOUNTAINS

CITY           SKY/WX    TMP DP  RH WIND       PRES   REMARKS
GALLUP         FAIR      35  22  58 CALM      30.34S
GRANTS         FAIR      32  16  52 NW12      30.35F WCI  23
SILVER CITY      N/A     59  14  17 CALM      30.31S

$$
NMZ407-409-411-412-131700-
SOUTHERN DESERTS

CITY           SKY/WX    TMP DP  RH WIND       PRES   REMARKS
DEMING         FAIR      52  15  23 NE5       30.27S
HOLLOMAN AFB   FAIR      46  13  26 CALM      30.27S
ALAMOGORDO     FAIR      50  14  23 CALM      30.28S
T OR C         FAIR      48  13  24 N3        30.29S

$$
NMZ519>523-131700-
CENTRAL VALLEYS/CENTRAL HIGHLANDS

CITY           SKY/WX    TMP DP  RH WIND       PRES   REMARKS
ALBUQUERQUE    FAIR      42  22  44 CALM      30.32S
DOUBLE EAGLE   MOSUNNY   46  23  39 NE5       30.32S
MORIARTY ARPT  FAIR      36  26  67 CALM      30.33F
CLINES CORNERS FAIR      50  16  25 SW16      30.30F
BELEN          FAIR      42  19  39 CALM      30.32S
SOCORRO        NOT AVBL

$$
NMZ524>526-539-540-131700-
SOUTHCENTRAL MOUNTAINS

CITY           SKY/WX    TMP DP  RH WIND       PRES   REMARKS
RUIDOSO          N/A     50  12  22 CALM      30.36S

$$
NMZ527>531-131700-
NORTHEAST HIGHLANDS/NORTHEAST PLAINS

CITY           SKY/WX    TMP DP  RH WIND       PRES   REMARKS
LAS VEGAS      FAIR      55  15  20 SW10      30.27F
RATON          FAIR      38  26  62 NE5       30.23F WCI  34
CLAYTON        FAIR      53  24  32 SW21G29   30.16F

$$
NMZ532>537-131700-
EASTCENTRAL PLAINS

CITY           SKY/WX    TMP DP  RH WIND       PRES   REMARKS
TUCUMCARI      FAIR      51  30  44 SW10      30.23F
CANNON AFB     FAIR      44  32  61 S15       30.28F
CLOVIS AIRPORT FAIR      45  32  61 S20       30.29F

$$
NMZ028-029-538-131700-
SOUTHEAST PLAINS

CITY           SKY/WX    TMP DP  RH WIND       PRES   REMARKS
ROSWELL        FAIR      45  27  49 CALM      30.28F
ARTESIA        FAIR      45  30  57 SE3       30.30S
CARLSBAD       FAIR      47  28  47 N3        30.28F
HOBBS          SUNNY     48  34  57 E8        30.31F


$$



USA.gov is the U.S. government's official web portal to all federal, state and local government web resources and services.